Simultaneous Nadir Overpasses (SNOs) Predictions

Prediction of SNOs between TERRA and METOP-C Satellite Orbit:

Table of predicted SNOs for the next 14.0 days since TLE Epoch: 6/10/2023
Index Date (TERRA) Time (TERRA) Lat,Lon (TERRA) SZA (TERRA ) Date (METOP-C) Time (METOP-C) Lat,Lon (METOP-C) SZA (METOP-C ) Distance(km) Time Diff (sec)
1 06/11/2023 12:13:29 80.79, 28.78 59.18 06/11/2023 12:13:00 80.79, 28.81 59.18 0.63 29
2 06/11/2023 13:02:50 -80.83,-163.02 120.74 06/11/2023 13:03:39 -80.83,-163.09 120.72 1.10 49
3 06/14/2023 03:34:59 -80.75, -22.01 121.06 06/14/2023 03:33:57 -80.76, -21.96 121.07 1.29 62
4 06/14/2023 04:24:18 80.83, 146.52 59.09 06/14/2023 04:24:34 80.82, 146.45 59.08 1.59 16
5 06/16/2023 19:45:47 -80.78, 95.61 121.13 06/16/2023 19:45:30 -80.79, 95.69 121.12 1.70 17
6 06/16/2023 20:35:06 80.85, -95.90 59.01 06/16/2023 20:36:07 80.85, -95.97 59.02 1.35 61
7 06/19/2023 11:07:14 80.77, 45.05 58.77 06/19/2023 11:06:25 80.76, 44.97 58.74 1.49 49
8 06/19/2023 11:56:35 -80.83,-146.61 121.12 06/19/2023 11:57:04 -80.82,-146.72 121.13 2.23 29
9 06/22/2023 03:18:02 80.79, 162.62 58.79 06/22/2023 03:17:59 80.78, 162.45 58.76 3.26 3



Historial Predications of SNOs between TERRA and METOP-C
